Weather in Pavlovskiy

Russia / Chelyabinsk Oblast     52°05′14″N   60°01′34″E
temp.,
°C
wind,
m/s
gust,
m/s
humid.,
%
clouds,
%
prec.,
mm/h
press.,
hPa
HPBL,
m
8 may, sat
sat823:00+13e4647100 0.0 101893
02:00+12e4754100 0.0 1018128
05:00+12se3454100 0.0 101882
08:00+14w2457100 0.0 1018298
11:00+16nnw4348100 0.0 10171021
14:00+18n4435100 0.0 10162485
17:00+17ne3539100 0.0 10162119
20:00+15nne3643100 0.0 1016200
9 may, sun
sun923:00+14ne4840100 0.0 1016291
02:00+11e2261100 0.0 101558
05:00+11nw236198 0.0 101640
08:00+14nw594987 0.0 1015545
11:00+18nne7833100 0.0 10142566
14:00+19n673288 0.0 10142517
17:00+19n673235 0.0 10142123
20:00+17nnw474458 0.0 1014115
10 may, mon
mon1023:00+14nne5105220 0.0 1015228
02:00+11nne410754 0.0 1017273
05:00+9n510805 0.0 1018266
08:00+12nne797685 0.0 1019680
11:00+13nne6776100 0.0 1020683
14:00+18nne475059 0.0 10201742
17:00+17e5653100 0.0 1021637
20:00+16se0057100 0.0 102211
11 may, tue
tue1123:00+14nw01615 0.0 102310
02:00+12n11691 0.0 102310
05:00+10n227322 0.0 102412
08:00+14ne3456100 0.0 1026234
11:00+18ne343539 0.0 10261272
14:00+21ne332679 0.0 10251835
17:00+21nne3323100 0.0 10252070
20:00+19nne223682 0.0 102514
12 may, wed
wed1223:00+16wsw003995 0.0 102611
02:00+14nnw234717 0.0 102618
05:00+13nne510725 0.0 1027246
08:00+14ne69668 0.0 1028475
11:00+17ne66415 0.0 10281183
14:00+19ne6629100 0.0 10281501
17:00+19nne45296 0.0 10271670
20:00+17nne35419 0.0 1027103